Weather History for Lawrenceville, IL

Change the Weather History Date:

Tuesday, January 15, 2013

  Actual Average Record
Temperature  
Mean Temperature 26 °F 31 °F  
Max Temperature 31 °F 39 °F 57 °F (2007)
Min Temperature 20 °F 23 °F -1 °F (2009)
Degree Days  
Heating Degree Days 39 34  
Month to date heating degree days 523 510  
Since 1 July heating degree days 2345 2309  
Cooling Degree Days 0 0  
Month to date cooling degree days 0 0  
Year to date cooling degree days 0 0  
Moisture  
Dew Point 21 °F    
Average Humidity 81    
Maximum Humidity 92    
Minimum Humidity 69    
Precipitation  
Precipitation 0.00 in 0.08 in 0.45 in (2007)
Month to date precipitation 4.36 1.35  
Year to date precipitation 4.36 1.35  
Sea Level Pressure  
Sea Level Pressure 30.30 in    
Wind  
Wind Speed 9 mph (NNE)    
Max Wind Speed 15 mph    
Max Gust Speed 18 mph    
Visibility 5 miles    
Events      
T = Trace of Precipitation, MM = Missing Value Source: NWS Daily Summary

Daily Weather History Graph

Daily Weather History Graph

Search for Another Location

Airport:

Trip Planner

Search our weather history database for the weather conditions in past years. The results will help you decide how hot, cold, wet, or windy it might be!

Date:

Astronomy

Jan. 15, 2013 Rise Set
Actual Time 7:07 AM CST 4:53 PM CST
Civil Twilight 6:37 AM CST 5:22 PM CST
Nautical Twilight 6:05 AM CST 5:55 PM CST
Astronomical Twilight 5:33 AM CST 6:26 PM CST
Moon 9:15 AM CST (1/15) 9:39 PM CST (1/15)
Length of Visible Light 10h 44m
Length of Day
9h 46m
Waxing Crescent, 19% of the Moon is Illuminated
Jan 15
Waxing Crescent
Jan 18
First Quarter
Jan 26
Full
Feb 3
Last Quarter
Feb 10
New

Hourly Weather History & Observations

Time (CST) Temp. Windchill Dew Point Humidity Pressure Visibility Wind Dir Wind Speed Gust Speed Precip Events Conditions
12:53 AM 21.9 °F 11.0 °F 19.0 °F 89% 30.41 in 6.0 mi North 10.4 mph - N/A   Clear
1:53 AM 21.0 °F 10.6 °F 18.0 °F 88% 30.41 in 5.0 mi North 9.2 mph - N/A   Clear
2:53 AM 21.0 °F 9.9 °F 18.0 °F 88% 30.40 in 5.0 mi North 10.4 mph - N/A   Clear
3:53 AM 19.9 °F 9.3 °F 18.0 °F 92% 30.40 in 5.0 mi North 9.2 mph - N/A   Clear
4:53 AM 19.9 °F 10.1 °F 18.0 °F 92% 30.38 in 5.0 mi NE 8.1 mph - N/A   Clear
5:17 AM 19.4 °F 7.2 °F 17.6 °F 93% 30.37 in 4.0 mi NNE 11.5 mph - N/A   Scattered Clouds
5:26 AM 21.2 °F 9.5 °F 17.6 °F 86% 30.37 in 4.0 mi NNE 11.5 mph - N/A   Mostly Cloudy
6:23 AM 19.4 °F 9.5 °F 17.6 °F 93% 30.37 in 4.0 mi NE 8.1 mph - N/A   Scattered Clouds
6:53 AM 19.9 °F 8.6 °F 18.0 °F 92% 30.38 in 4.0 mi NE 10.4 mph - N/A   Clear
7:23 AM 19.4 °F 9.5 °F 17.6 °F 93% 30.36 in 2.5 mi NE 8.1 mph - N/A   Clear
7:53 AM 21.0 °F 13.4 °F 18.0 °F 88% 30.39 in 2.5 mi NE 5.8 mph - N/A   Clear
8:14 AM 21.2 °F 10.9 °F 19.4 °F 93% 30.40 in 3.0 mi North 9.2 mph - N/A   Clear
8:53 AM 23.0 °F 11.7 °F 19.0 °F 85% 30.41 in 4.0 mi NNE 11.5 mph - N/A   Clear
9:53 AM 25.0 °F 13.1 °F 19.9 °F 81% 30.37 in 4.0 mi NNE 13.8 mph - N/A   Haze
10:53 AM 27.0 °F 16.7 °F 21.0 °F 78% 30.34 in 5.0 mi NNE 11.5 mph - N/A   Haze
11:53 AM 30.0 °F 21.7 °F 21.9 °F 72% 30.27 in 5.0 mi NE 9.2 mph - 0.01 in   Haze
12:53 PM 30.9 °F 21.2 °F 23.0 °F 72% 30.26 in 6.0 mi NNE 12.7 mph - N/A   Haze
1:53 PM 30.9 °F 24.3 °F 21.9 °F 69% 30.29 in 6.0 mi NNE 6.9 mph - N/A   Haze
2:53 PM 30.9 °F 23.5 °F 21.9 °F 69% 30.27 in 6.0 mi NNE 8.1 mph - N/A   Haze
3:53 PM 30.9 °F 25.2 °F 23.0 °F 72% 30.25 in 6.0 mi North 5.8 mph - N/A   Haze
4:53 PM 30.9 °F 24.3 °F 24.1 °F 76% 30.22 in 7.0 mi NNE 6.9 mph - N/A   Overcast
5:53 PM 30.9 °F 23.5 °F 24.1 °F 76% 30.22 in 7.0 mi North 8.1 mph - N/A   Overcast
6:53 PM 30.9 °F 23.5 °F 24.1 °F 76% 30.19 in 6.0 mi NNE 8.1 mph - N/A   Haze
7:53 PM 30.9 °F 23.5 °F 24.1 °F 76% 30.19 in 7.0 mi NNE 8.1 mph - N/A   Overcast
8:53 PM 30.9 °F 22.8 °F 24.1 °F 76% 30.17 in 7.0 mi North 9.2 mph - N/A   Overcast
9:53 PM 30.0 °F 23.2 °F 24.1 °F 79% 30.14 in 7.0 mi NNE 6.9 mph - N/A   Overcast
10:53 PM 28.9 °F 22.8 °F 24.1 °F 82% 30.15 in 7.0 mi North 5.8 mph - N/A   Mostly Cloudy
11:53 PM 28.9 °F 22.8 °F 24.1 °F 82% 30.14 in 7.0 mi NNW 5.8 mph - N/A   Overcast